This is the latest recevied weather packets stored in our database for station/object N7MLR. If no packets are shown the sender has not sent any weather packets the latest 10 day(s).
| Time | Temp. | Humidity | Pressure | Rain* | Wind** | Luminosity | Snow |
|---|---|---|---|---|---|---|---|
| 1778084570 | 25° C | 86% | 1011.3 hPa | 0 mm | - | 33 W/m² | - |
| 1778084268 | 25.56° C | 85% | 1011.1 hPa | 0 mm | - | 105 W/m² | - |
| 1778083965 | 25.56° C | 85% | 1011.1 hPa | 0 mm | - | 160 W/m² | - |
| 1778083662 | 25.56° C | 85% | 1011.2 hPa | 0 mm | - | 195 W/m² | - |
| 1778083359 | 25.56° C | 85% | 1011.1 hPa | 0 mm | - | 200 W/m² | - |
| 1778083058 | 25.56° C | 85% | 1011.2 hPa | 0 mm | - | 197 W/m² | - |
| 1778082754 | 25° C | 86% | 1011.2 hPa | 0 mm | - | 212 W/m² | - |
| 1778081621 | 25° C | 88% | 1011.2 hPa | 0 mm | - | 158 W/m² | - |
| 1778081318 | 25° C | 89% | 1011.1 hPa | 0 mm | - | 129 W/m² | - |
| 1778081015 | 24.44° C | 89% | 1010.6 hPa | 0 mm | - | 118 W/m² | - |
| 1778080714 | 24.44° C | 89% | 1010.5 hPa | 0 mm | - | 143 W/m² | - |
| 1778080410 | 25° C | 89% | 1010.3 hPa | 0 mm | - | 135 W/m² | - |
| 1778080107 | 24.44° C | 91% | 1010.6 hPa | 0 mm | - | 133 W/m² | - |
| 1778079804 | 24.44° C | 91% | 1010 hPa | 0 mm | - | 131 W/m² | - |
| 1778079501 | 24.44° C | 91% | 1010.3 hPa | 0 mm | - | 131 W/m² | - |
| 1778079197 | 23.89° C | 91% | 1010.3 hPa | 0 mm | - | 126 W/m² | - |
| 1778078895 | 23.89° C | 92% | 1010.2 hPa | 0 mm | - | 119 W/m² | - |
| 1778078591 | 23.89° C | 92% | 1010.1 hPa | 0 mm | - | 89 W/m² | - |
| 1778078290 | 23.89° C | 92% | 1010 hPa | 0 mm | - | 73 W/m² | - |
| 1778077986 | 23.89° C | 93% | 1010.1 hPa | 0 mm | - | 63 W/m² | - |
| 1778077685 | 23.89° C | 93% | 1010.3 hPa | 0 mm | - | 52 W/m² | - |
| 1778077382 | 23.89° C | 93% | 1010.3 hPa | 0 mm | - | 57 W/m² | - |
| 1778077081 | 23.89° C | 93% | 1010.2 hPa | 0 mm | - | 62 W/m² | - |
| 1778076778 | 23.33° C | 94% | 1010.1 hPa | 0 mm | - | 63 W/m² | - |
| 1778076476 | 23.33° C | 94% | 1010.1 hPa | 0 mm | - | 50 W/m² | - |
* Rain latest hour (hover to see other rain measurements)
** Current wind speed in m/s (hover to see current wind gust speed)